Weather History for KLHW - March, 2015

Change the Weather History Date:

Monday, March 30, 2015

  Actual Average Record
Temperature  
Mean Temperature 54 °F -  
Max Temperature 70 °F 77 °F 87 °F (1976)
Min Temperature 38 °F 54 °F 38 °F (2015)
Degree Days  
Heating Degree Days 12    
Growing Degree Days 4 (Base 50)    
Moisture  
Dew Point 48 °F    
Average Humidity 78    
Maximum Humidity 94    
Minimum Humidity 49    
Precipitation  
Precipitation 0.02 in - - ()
Sea Level Pressure  
Sea Level Pressure 30.16 in    
Wind  
Wind Speed 4 mph (WSW)    
Max Wind Speed 15 mph    
Max Gust Speed 23 mph    
Visibility 9 miles    
Events Rain    
Averages and records for this station are not official NWS values.
T = Trace of Precipitation, MM = Missing Value Source: NWS Daily Summary

Daily Weather History Graph

Daily Weather History Graph

Search for Another Location

Airport or City:

Trip Planner

Search our weather history database for the weather conditions in past years. The results will help you decide how hot, cold, wet, or windy it might be!

Date:

Astronomy

Mar. 30, 2015 Rise Set
Actual Time 7:17 AM EDT 7:44 PM EDT
Civil Twilight 6:53 AM EDT 8:08 PM EDT
Nautical Twilight 6:24 AM EDT 8:37 PM EDT
Astronomical Twilight 5:55 AM EDT 9:06 PM EDT
Moon 3:47 PM EDT 4:25 AM EDT
Length of Visible Light 13h 15m
Length of Day
12h 26m
Waxing Gibbous, 80% of the Moon is Illuminated
Mar 30
Waxing Gibbous
Apr 4
Full
Apr 11
Last Quarter
Apr 18
New
Apr 25
First Quarter

Hourly Weather History & Observations

Time (EDT) Temp. Dew Point Humidity Pressure Visibility Wind Dir Wind Speed Gust Speed Precip Events Conditions
12:58 AM 39.6 °F 35.4 °F 85% 30.31 in 10.0 mi Calm Calm - N/A   Clear
1:58 AM 39.4 °F 35.8 °F 87% 30.29 in 10.0 mi Calm Calm - N/A   Clear
2:58 AM 39.0 °F 36.1 °F 89% 30.26 in 10.0 mi Calm Calm - N/A   Clear
3:58 AM 39.6 °F 36.3 °F 88% 30.24 in 10.0 mi Calm Calm - N/A   Clear
4:58 AM 38.8 °F 36.1 °F 90% 30.23 in 10.0 mi Calm Calm - N/A   Clear
5:58 AM 39.4 °F 36.5 °F 89% 30.23 in 10.0 mi Calm Calm - N/A   Clear
6:58 AM 40.3 °F 37.2 °F 89% 30.23 in 10.0 mi Calm Calm - N/A   Clear
7:58 AM 42.8 °F 39.7 °F 89% 30.23 in 10.0 mi Calm Calm - N/A   Partly Cloudy
8:58 AM 50.4 °F 42.4 °F 74% 30.22 in 10.0 mi SSW 4.6 mph - N/A   Partly Cloudy
9:58 AM 56.1 °F 43.3 °F 62% 30.22 in 10.0 mi SSW 10.4 mph - N/A   Mostly Cloudy
10:58 AM 60.4 °F 43.5 °F 54% 30.22 in 10.0 mi SW 10.4 mph - N/A   Mostly Cloudy
11:37 AM 64.4 °F 44.6 °F 49% 30.24 in 10.0 mi NW 15.0 mph 20.7 mph N/A   Mostly Cloudy
11:58 AM 61.0 °F 44.1 °F 54% 30.27 in 10.0 mi NW 15.0 mph 23.0 mph N/A   Mostly Cloudy
12:46 PM 59.0 °F 44.6 °F 59% 30.20 in 10.0 mi SSW 5.8 mph - N/A Rain Light Rain
12:55 PM 59.0 °F 44.6 °F 59% 30.20 in 10.0 mi SSW 6.9 mph - N/A   Overcast
12:58 PM 59.4 °F 44.4 °F 58% 30.21 in 10.0 mi SW 5.8 mph - 0.00 in   Overcast
1:14 PM 60.8 °F 44.6 °F 55% 30.19 in 10.0 mi SW 8.1 mph - N/A Rain Light Rain
1:38 PM 57.2 °F 48.2 °F 72% 30.17 in 10.0 mi Variable 5.8 mph - N/A Rain Light Rain
1:58 PM 56.5 °F 50.2 °F 79% 30.15 in 10.0 mi SSW 6.9 mph - 0.01 in Rain Light Rain
1:59 PM 57.2 °F 50.0 °F 77% 30.14 in 10.0 mi SSW 6.9 mph - N/A   Scattered Clouds
2:58 PM 65.3 °F 53.1 °F 65% 30.14 in 10.0 mi WSW 13.8 mph - 0.01 in   Scattered Clouds
3:58 PM 67.3 °F 53.6 °F 61% 30.11 in 10.0 mi WSW 10.4 mph - N/A   Overcast
4:58 PM 67.8 °F 54.7 °F 63% 30.09 in 10.0 mi WSW 8.1 mph 17.3 mph N/A   Mostly Cloudy
5:32 PM 69.8 °F 55.4 °F 60% 30.07 in 10.0 mi West 12.7 mph - N/A   Mostly Cloudy
5:58 PM 69.3 °F 55.9 °F 62% 30.07 in 10.0 mi WSW 12.7 mph - N/A   Scattered Clouds
6:58 PM 68.4 °F 56.3 °F 65% 30.07 in 10.0 mi West 10.4 mph - N/A   Partly Cloudy
7:58 PM 64.4 °F 56.3 °F 75% 30.07 in 10.0 mi WSW 4.6 mph - N/A   Clear
8:58 PM 58.5 °F 55.4 °F 90% 30.08 in 8.0 mi West 2.3 mph - N/A   Clear
9:08 PM 57.2 °F 55.4 °F 94% 30.08 in 10.0 mi West 1.2 mph - N/A   Clear
9:58 PM 55.9 °F 54.0 °F 93% 30.09 in 9.0 mi Calm Calm - N/A   Clear
10:03 PM 55.4 °F 53.6 °F 94% 30.08 in 6.0 mi Calm Calm - N/A   Clear
10:18 PM 55.4 °F 53.6 °F 94% 30.08 in 8.0 mi SSW 1.2 mph - N/A   Clear
10:23 PM 55.4 °F 53.6 °F 94% 30.08 in 8.0 mi Calm Calm - N/A   Clear
10:58 PM 53.6 °F 51.8 °F 94% 30.09 in 3.0 mi Calm Calm - N/A   Clear
11:03 PM 53.6 °F 51.8 °F 94% 30.08 in 3.0 mi Calm Calm - N/A   Clear
11:08 PM 53.6 °F 51.8 °F 94% 30.08 in 6.0 mi SSW 1.2 mph - N/A   Clear
11:18 PM 53.6 °F 51.8 °F 94% 30.08 in 7.0 mi Calm Calm - N/A   Clear
11:23 PM 53.6 °F 51.8 °F 94% 30.08 in 10.0 mi Calm Calm - N/A   Clear
11:58 PM 52.3 °F 50.5 °F 94% 30.10 in 10.0 mi NNE 1.2 mph - N/A   Clear